DLH9M EDDH-EDDM

Flight info

Callsign DLH9M
Flight time N/A
Altitude 29000
Route AMLUH2G/33 AMLUH M852 DENIX DCT ZUCKA DCT SODRO T703 LULAR T105 LANDU LANDU2B
Aircraft A321/M-SDE3FGHIRWY/LB1

Departure

Time 2026-04-25 20:36
Airport Hamburg Helmut Schmidt Airport (EDDH)

Arrival

Time N/A
Airport Munich Airport (EDDM)
Time Latitude Longitude Altitude Speed Heading
2026-04-25 19:47 53.63167 10.00363 48 ft 0 kts 86°
2026-04-25 20:16 53.63167 10.00362 48 ft 1 kts 86°
2026-04-25 20:16 53.63166 10.00325 48 ft 2 kts 86°
2026-04-25 20:16 53.63166 10.00287 48 ft 4 kts 107°
2026-04-25 20:17 53.63179 10.00255 47 ft 4 kts 160°
2026-04-25 20:17 53.63190 10.00250 48 ft 0 kts 176°
2026-04-25 20:20 53.63179 10.00251 48 ft 4 kts 176°
2026-04-25 20:20 53.63133 10.00257 48 ft 9 kts 176°
2026-04-25 20:21 53.63063 10.00246 48 ft 12 kts 200°
2026-04-25 20:21 53.62982 10.00171 48 ft 14 kts 212°
2026-04-25 20:21 53.62937 10.00122 48 ft 8 kts 213°
2026-04-25 20:21 53.62885 10.00061 48 ft 10 kts 219°
2026-04-25 20:22 53.62849 9.99972 48 ft 4 kts 242°
2026-04-25 20:22 53.62845 9.99961 45 ft 0 kts 242°
2026-04-25 20:33 53.62842 9.99951 46 ft 3 kts 242°
2026-04-25 20:33 53.62831 9.99913 51 ft 8 kts 242°
2026-04-25 20:34 53.62846 9.99767 45 ft 12 kts 323°
2026-04-25 20:34 53.62872 9.99741 45 ft 0 kts 332°
2026-04-25 20:35 53.62873 9.99740 45 ft 4 kts 332°
2026-04-25 20:35 53.63158 9.99492 47 ft 86 kts 333°
2026-04-25 20:35 53.63908 9.98844 51 ft 152 kts 333°
2026-04-25 20:36 53.64914 9.98014 646 ft 160 kts 332°
2026-04-25 20:36 53.65906 9.97170 1522 ft 160 kts 331°
2026-04-25 20:36 53.66935 9.96274 2039 ft 176 kts 331°
2026-04-25 20:36 53.68062 9.95295 2594 ft 186 kts 332°
2026-04-25 20:37 53.69310 9.94683 3450 ft 190 kts 354°
2026-04-25 20:37 53.70634 9.94681 4356 ft 191 kts 357°
2026-04-25 20:37 53.71964 9.94789 5229 ft 195 kts
2026-04-25 20:37 53.73150 9.96048 6005 ft 217 kts 44°
2026-04-25 20:38 53.73755 9.98529 6730 ft 240 kts 66°
2026-04-25 20:38 53.74088 10.01333 7436 ft 251 kts 78°
2026-04-25 20:38 53.73880 10.04371 8086 ft 274 kts 101°
2026-04-25 20:38 53.73000 10.07420 8391 ft 304 kts 116°
2026-04-25 20:39 53.71902 10.10622 8761 ft 323 kts 116°
2026-04-25 20:39 53.70764 10.13952 9416 ft 331 kts 116°
2026-04-25 20:39 53.69457 10.17199 10080 ft 340 kts 130°
2026-04-25 20:39 53.68332 10.19063 10487 ft 344 kts 141°
2026-04-25 20:40 53.65547 10.21836 11127 ft 358 kts 162°
2026-04-25 20:40 53.63095 10.23052 11294 ft 378 kts 169°
2026-04-25 20:40 53.60511 10.24209 11737 ft 389 kts 169°
2026-04-25 20:40 53.57877 10.25392 12332 ft 395 kts 168°
2026-04-25 20:41 53.55206 10.26608 12902 ft 400 kts 168°
2026-04-25 20:41 53.52514 10.27842 13613 ft 402 kts 168°
2026-04-25 20:41 53.49807 10.29086 14248 ft 405 kts 168°
2026-04-25 20:41 53.47076 10.30337 14830 ft 409 kts 168°
2026-04-25 20:42 53.44318 10.31597 15406 ft 412 kts 168°
2026-04-25 20:42 53.41544 10.32864 15997 ft 415 kts 168°
2026-04-25 20:42 53.38741 10.34132 16593 ft 420 kts 168°
2026-04-25 20:42 53.35898 10.35407 17102 ft 425 kts 169°
2026-04-25 20:43 53.33025 10.36693 17651 ft 429 kts 169°
2026-04-25 20:43 53.30127 10.37989 18210 ft 433 kts 169°
2026-04-25 20:43 53.27207 10.39293 18705 ft 435 kts 169°
2026-04-25 20:43 53.24245 10.40618 19296 ft 435 kts 169°
2026-04-25 20:44 53.21312 10.41927 19822 ft 437 kts 169°
2026-04-25 20:44 53.18363 10.43239 20323 ft 440 kts 169°
2026-04-25 20:44 53.15395 10.44556 20810 ft 443 kts 169°
2026-04-25 20:44 53.12406 10.45864 21278 ft 445 kts 170°
2026-04-25 20:45 53.09383 10.47012 21731 ft 447 kts 172°
2026-04-25 20:45 53.06327 10.48000 22198 ft 449 kts 174°
2026-04-25 20:45 53.03242 10.48893 22661 ft 451 kts 175°
2026-04-25 20:45 53.00136 10.49757 23110 ft 454 kts 175°
2026-04-25 20:46 52.97009 10.50639 23549 ft 457 kts 174°
2026-04-25 20:46 52.93827 10.51573 23938 ft 460 kts 174°
2026-04-25 20:46 52.90671 10.52537 24310 ft 462 kts 173°
2026-04-25 20:46 52.87502 10.53525 24708 ft 464 kts 173°
2026-04-25 20:47 52.84337 10.54519 25092 ft 466 kts 173°
2026-04-25 20:47 52.81126 10.55522 25468 ft 468 kts 173°
2026-04-25 20:47 52.77915 10.56520 25832 ft 471 kts 173°
2026-04-25 20:47 52.74695 10.57518 26254 ft 471 kts 173°
2026-04-25 20:48 52.71516 10.58924 26631 ft 476 kts 163°
2026-04-25 20:48 52.68371 10.60721 26985 ft 480 kts 164°
2026-04-25 20:48 52.65211 10.62546 27306 ft 483 kts 163°
2026-04-25 20:48 52.62032 10.64393 27649 ft 486 kts 163°
2026-04-25 20:49 52.58839 10.66246 27993 ft 488 kts 163°
2026-04-25 20:49 52.55631 10.68101 28354 ft 490 kts 163°
2026-04-25 20:49 52.52408 10.69958 28700 ft 492 kts 163°
2026-04-25 20:49 52.49174 10.71814 29041 ft 492 kts 163°
2026-04-25 20:50 52.45949 10.73663 29131 ft 481 kts 164°
2026-04-25 20:50 52.42863 10.75439 29128 ft 466 kts 164°
2026-04-25 20:50 52.36792 10.78908 29135 ft 460 kts 164°
2026-04-25 20:51 52.30745 10.82332 29131 ft 459 kts 164°
2026-04-25 20:51 52.24709 10.85750 29117 ft 458 kts 164°
2026-04-25 20:52 52.19719 10.88575 29128 ft 456 kts 164°
2026-04-25 20:52 52.12710 10.92534 29123 ft 456 kts 164°
2026-04-25 20:53 52.06705 10.95919 29110 ft 457 kts 164°
2026-04-25 20:53 52.00684 10.99308 29079 ft 458 kts 164°
2026-04-25 20:54 51.94665 11.02680 29105 ft 457 kts 164°
2026-04-25 20:54 51.88653 11.06033 29121 ft 457 kts 164°
2026-04-25 20:55 51.82650 11.09370 29129 ft 456 kts 164°
2026-04-25 20:55 51.76655 11.12693 29116 ft 455 kts 164°
2026-04-25 20:56 51.70661 11.16006 29114 ft 455 kts 164°
2026-04-25 20:56 51.64678 11.19321 29131 ft 455 kts 164°
2026-04-25 20:57 51.58681 11.22623 29105 ft 456 kts 164°
2026-04-25 20:57 51.53649 11.25385 29093 ft 456 kts 164°
2026-04-25 20:58 51.47638 11.28675 29082 ft 456 kts 164°
2026-04-25 20:58 51.41633 11.31951 29110 ft 455 kts 164°
2026-04-25 20:59 51.35638 11.35212 29105 ft 455 kts 164°
2026-04-25 20:59 51.29578 11.38509 29110 ft 454 kts 164°
2026-04-25 21:00 51.24601 11.41202 29080 ft 454 kts 164°
2026-04-25 21:01 51.14664 11.46568 29143 ft 450 kts 164°
2026-04-25 21:01 51.08737 11.49761 29119 ft 449 kts 164°
2026-04-25 21:02 51.02809 11.52927 29116 ft 449 kts 164°
2026-04-25 21:02 50.96886 11.56087 29114 ft 447 kts 163°
2026-04-25 21:02 50.94024 11.57623 29064 ft 433 kts 164°
2026-04-25 21:03 50.91184 11.59148 29087 ft 421 kts 164°
2026-04-25 21:03 50.88363 11.60651 29095 ft 434 kts 164°
2026-04-25 21:03 50.85477 11.62177 29093 ft 440 kts 164°
2026-04-25 21:04 50.79676 11.65244 29091 ft 444 kts 164°
2026-04-25 21:04 50.73776 11.68365 29076 ft 443 kts 163°
2026-04-25 21:05 50.67943 11.71455 29094 ft 442 kts 163°
2026-04-25 21:05 50.62117 11.74529 29109 ft 442 kts 164°
2026-04-25 21:06 50.56277 11.77582 29095 ft 442 kts 164°
2026-04-25 21:06 50.50448 11.80623 29095 ft 442 kts 164°
2026-04-25 21:07 50.44671 11.83924 29107 ft 443 kts 158°
2026-04-25 21:07 50.38975 11.87814 29120 ft 443 kts 158°
2026-04-25 21:08 50.33313 11.91646 29121 ft 444 kts 159°
2026-04-25 21:08 50.27642 11.95461 29121 ft 444 kts 159°
2026-04-25 21:09 50.19137 12.01177 29125 ft 443 kts 159°
2026-04-25 21:09 50.13468 12.04955 29112 ft 442 kts 162°
2026-04-25 21:10 50.10503 12.06078 29111 ft 437 kts 174°
2026-04-25 21:10 50.07493 12.06778 29107 ft 437 kts 175°
2026-04-25 21:10 50.01468 12.08124 29081 ft 437 kts 175°
2026-04-25 21:11 49.98484 12.08784 28814 ft 429 kts 175°